SWR3901 LOWI-OMDB

Flight info

Callsign SWR3901
Flight time N/A
Altitude 39000
Route OBEDI DCT INSAX DCT NALOX DCT PARAK DCT DIDIX DCT LAMIT DCT RONBU P975 ARTAT UP975 LESRI P975 ULDUR M688 SIDAD P975 SESRU M677 TOSDA M708 TORBO N572 SEVNI M677 ASROK M708 SOGAN N572 MURUB M677 OBNET/N0487F350 M677 VUTEB
Aircraft A333/H-SDE3GHIJ2J3J5M1RVWXY/LB2D1

Departure

Time 2026-05-06 19:18
Airport Innsbruck Airport (LOWI)

Arrival

Time N/A
Airport Dubai International Airport (OMDB)
Time Latitude Longitude Altitude Speed Heading
2026-05-06 18:52 47.25827 11.34987 1895 ft 0 kts 171°
2026-05-06 19:07 47.25843 11.34984 1886 ft 3 kts 180°
2026-05-06 19:07 47.25860 11.34987 1910 ft 2 kts 207°
2026-05-06 19:08 47.25871 11.35002 1895 ft 3 kts 249°
2026-05-06 19:08 47.25874 11.35023 1895 ft 2 kts 262°
2026-05-06 19:08 47.25876 11.35039 1895 ft 2 kts 264°
2026-05-06 19:08 47.25876 11.35040 1895 ft 0 kts 264°
2026-05-06 19:10 47.25876 11.35039 1895 ft 1 kts 264°
2026-05-06 19:10 47.25868 11.34944 1895 ft 18 kts 261°
2026-05-06 19:11 47.25839 11.34695 1903 ft 28 kts 260°
2026-05-06 19:11 47.25808 11.34412 1899 ft 28 kts 261°
2026-05-06 19:11 47.25777 11.34136 1896 ft 23 kts 262°
2026-05-06 19:11 47.25771 11.34044 1902 ft 0 kts 271°
2026-05-06 19:12 47.25771 11.34043 1902 ft 0 kts 271°
2026-05-06 19:12 47.25775 11.33986 1901 ft 10 kts 289°
2026-05-06 19:13 47.25800 11.33902 1899 ft 0 kts 302°
2026-05-06 19:16 47.25834 11.33833 1896 ft 18 kts 306°
2026-05-06 19:16 47.25928 11.33610 1904 ft 29 kts 277°
2026-05-06 19:16 47.25900 11.33322 1904 ft 28 kts 245°
2026-05-06 19:16 47.25840 11.33097 1906 ft 16 kts 279°
2026-05-06 19:17 47.25856 11.33067 1897 ft 1 kts 348°
2026-05-06 19:17 47.25877 11.33107 1899 ft 12 kts 65°
2026-05-06 19:17 47.25904 11.33335 1900 ft 40 kts 82°
2026-05-06 19:17 47.25968 11.33986 1900 ft 96 kts 81°
2026-05-06 19:18 47.26091 11.35282 1991 ft 155 kts 88°
2026-05-06 19:18 47.26255 11.37042 2425 ft 193 kts 84°
2026-05-06 19:18 47.26497 11.39071 3402 ft 202 kts 81°
2026-05-06 19:18 47.26730 11.41164 4360 ft 216 kts 84°
2026-05-06 19:19 47.26979 11.43485 5015 ft 241 kts 82°
2026-05-06 19:19 47.27445 11.45957 5747 ft 259 kts 71°
2026-05-06 19:19 47.28112 11.48431 6574 ft 267 kts 70°
2026-05-06 19:19 47.28854 11.51025 7308 ft 282 kts 69°
2026-05-06 19:20 47.29628 11.53720 8306 ft 288 kts 69°
2026-05-06 19:20 47.30416 11.56472 9351 ft 294 kts 69°
2026-05-06 19:20 47.31210 11.59269 10201 ft 299 kts 70°
2026-05-06 19:20 47.32011 11.62194 10542 ft 318 kts 69°
2026-05-06 19:21 47.32930 11.65279 10794 ft 339 kts 67°
2026-05-06 19:21 47.33986 11.68510 11035 ft 359 kts 65°
2026-05-06 19:21 47.35149 11.71883 11256 ft 379 kts 64°
2026-05-06 19:21 47.36394 11.75397 11635 ft 392 kts 64°
2026-05-06 19:22 47.37679 11.78978 12244 ft 398 kts 63°
2026-05-06 19:22 47.38985 11.82601 12805 ft 404 kts 64°
2026-05-06 19:22 47.40318 11.86299 13459 ft 409 kts 63°
2026-05-06 19:22 47.41573 11.90025 14071 ft 413 kts 69°
2026-05-06 19:23 47.42443 11.94055 14727 ft 412 kts 81°
2026-05-06 19:23 47.42738 11.98247 15331 ft 411 kts 94°
2026-05-06 19:23 47.42572 12.02359 15920 ft 411 kts 99°
2026-05-06 19:23 47.42289 12.06413 16487 ft 415 kts 100°
2026-05-06 19:24 47.41978 12.10655 17068 ft 417 kts 100°
2026-05-06 19:24 47.41667 12.14931 17700 ft 420 kts 100°
2026-05-06 19:24 47.41360 12.19203 18218 ft 424 kts 100°
2026-05-06 19:24 47.41048 12.23551 18700 ft 427 kts 100°
2026-05-06 19:25 47.40740 12.27873 19190 ft 430 kts 100°
2026-05-06 19:25 47.40420 12.32364 19650 ft 434 kts 100°
2026-05-06 19:25 47.40106 12.36732 20062 ft 438 kts 100°
2026-05-06 19:25 47.39783 12.41221 20529 ft 441 kts 100°
2026-05-06 19:26 47.39459 12.45714 20996 ft 443 kts 100°
2026-05-06 19:26 47.39129 12.50266 21432 ft 447 kts 101°
2026-05-06 19:26 47.38793 12.54844 21867 ft 451 kts 101°
2026-05-06 19:26 47.38451 12.59472 22252 ft 456 kts 101°
2026-05-06 19:27 47.38106 12.64133 22718 ft 459 kts 101°
2026-05-06 19:27 47.37760 12.68820 23268 ft 461 kts 101°
2026-05-06 19:27 47.37407 12.73538 23629 ft 466 kts 101°
2026-05-06 19:27 47.37047 12.78305 23977 ft 470 kts 101°
2026-05-06 19:28 47.36683 12.83107 24327 ft 473 kts 101°
2026-05-06 19:28 47.36440 12.86309 24583 ft 475 kts 101°
2026-05-06 19:28 47.35948 12.92739 24992 ft 479 kts 102°
2026-05-06 19:28 47.35571 12.97635 25281 ft 481 kts 101°
2026-05-06 19:29 47.35190 13.02550 25604 ft 484 kts 102°
2026-05-06 19:29 47.34806 13.07489 25975 ft 487 kts 102°
2026-05-06 19:29 47.34416 13.12474 26303 ft 490 kts 102°
2026-05-06 19:29 47.34017 13.17479 26640 ft 494 kts 102°
2026-05-06 19:30 47.33755 13.20809 26849 ft 496 kts 102°
2026-05-06 19:30 47.33366 13.25878 27207 ft 499 kts 99°
2026-05-06 19:30 47.32985 13.30980 27524 ft 502 kts 102°
2026-05-06 19:30 47.32536 13.36081 27871 ft 503 kts 104°
2026-05-06 19:31 47.32029 13.41202 28185 ft 505 kts 104°
2026-05-06 19:31 47.31493 13.46321 28546 ft 506 kts 104°
2026-05-06 19:31 47.30395 13.56631 29153 ft 513 kts 104°
2026-05-06 19:32 47.29844 13.61840 29465 ft 515 kts 104°
2026-05-06 19:32 47.29303 13.66988 29899 ft 515 kts 104°
2026-05-06 19:32 47.28759 13.72191 30312 ft 513 kts 104°
2026-05-06 19:32 47.28216 13.77381 30753 ft 511 kts 104°
2026-05-06 19:33 47.27677 13.82535 31168 ft 509 kts 104°
2026-05-06 19:33 47.27136 13.87669 31624 ft 507 kts 104°
2026-05-06 19:33 47.26598 13.92749 32017 ft 505 kts 104°
2026-05-06 19:33 47.26054 13.97852 32403 ft 504 kts 104°
2026-05-06 19:34 47.25507 14.02956 32782 ft 504 kts 104°
2026-05-06 19:34 47.24972 14.07937 33135 ft 503 kts 105°
2026-05-06 19:34 47.24423 14.13022 33543 ft 501 kts 105°
2026-05-06 19:34 47.23875 14.18081 33920 ft 500 kts 105°
2026-05-06 19:35 47.23324 14.23133 34126 ft 501 kts 104°
2026-05-06 19:35 47.22766 14.28210 34345 ft 503 kts 104°
2026-05-06 19:35 47.22209 14.33283 34643 ft 502 kts 104°
2026-05-06 19:35 47.21650 14.38348 35002 ft 500 kts 104°
2026-05-06 19:36 47.21093 14.43384 35329 ft 498 kts 104°
2026-05-06 19:36 47.20535 14.48404 35598 ft 497 kts 104°
2026-05-06 19:36 47.19974 14.53409 35768 ft 497 kts 104°
2026-05-06 19:36 47.19417 14.58356 35966 ft 496 kts 104°
2026-05-06 19:37 47.18850 14.63363 36096 ft 499 kts 104°
2026-05-06 19:37 47.18278 14.68413 36187 ft 502 kts 104°
2026-05-06 19:37 47.17705 14.73470 36447 ft 501 kts 104°
2026-05-06 19:37 47.17134 14.78504 36737 ft 499 kts 104°
2026-05-06 19:38 47.16562 14.83527 37030 ft 498 kts 104°
2026-05-06 19:38 47.15986 14.88544 37299 ft 497 kts 104°
2026-05-06 19:38 47.15411 14.93537 37578 ft 496 kts 104°
2026-05-06 19:38 47.14831 14.98541 37817 ft 496 kts 104°
2026-05-06 19:39 47.14251 15.03526 38040 ft 495 kts 104°
2026-05-06 19:39 47.13670 15.08499 38309 ft 494 kts 104°
2026-05-06 19:39 47.13095 15.13398 38544 ft 493 kts 104°
2026-05-06 19:39 47.12513 15.18351 38712 ft 493 kts 104°
2026-05-06 19:40 47.11926 15.23316 38833 ft 493 kts 104°
2026-05-06 19:40 47.11337 15.28276 38852 ft 492 kts 104°
2026-05-06 19:40 47.10161 15.38148 38875 ft 490 kts 104°
2026-05-06 19:41 47.08976 15.48006 38884 ft 490 kts 104°
2026-05-06 19:41 47.07785 15.57838 38880 ft 490 kts 104°
2026-05-06 19:42 47.06593 15.67606 38874 ft 490 kts 104°
2026-05-06 19:42 47.05385 15.77424 38868 ft 490 kts 104°
2026-05-06 19:43 47.04169 15.87253 38861 ft 490 kts 104°
2026-05-06 19:43 47.02943 15.97075 38855 ft 490 kts 104°
2026-05-06 19:44 47.01682 16.06875 38850 ft 488 kts 108°
2026-05-06 19:44 46.99960 16.16391 38852 ft 486 kts 109°
2026-05-06 19:45 46.98114 16.25916 38854 ft 486 kts 110°
2026-05-06 19:45 46.96237 16.35430 38858 ft 486 kts 110°
2026-05-06 19:46 46.94356 16.44940 38865 ft 486 kts 110°
2026-05-06 19:46 46.92489 16.54372 38866 ft 486 kts 110°
2026-05-06 19:47 46.90602 16.63867 38871 ft 487 kts 110°
2026-05-06 19:47 46.88704 16.73373 38872 ft 487 kts 110°
2026-05-06 19:48 46.86801 16.82866 38872 ft 487 kts 110°
2026-05-06 19:48 46.84917 16.92303 38892 ft 487 kts 110°
2026-05-06 19:49 46.83021 17.01785 38897 ft 486 kts 109°
2026-05-06 19:49 46.81121 17.11243 38907 ft 485 kts 109°
2026-05-06 19:50 46.79214 17.20681 38914 ft 485 kts 110°
2026-05-06 19:50 46.77312 17.30047 38905 ft 485 kts 110°
2026-05-06 19:51 46.75388 17.39477 38904 ft 485 kts 109°
2026-05-06 19:51 46.73455 17.48905 38903 ft 485 kts 110°
2026-05-06 19:52 46.71514 17.58325 38897 ft 485 kts 110°
2026-05-06 19:52 46.69581 17.67671 38894 ft 485 kts 110°
2026-05-06 19:53 46.67625 17.77077 38895 ft 486 kts 110°
2026-05-06 19:53 46.65657 17.86497 38896 ft 487 kts 110°
2026-05-06 19:54 46.63679 17.95924 38903 ft 487 kts 110°
2026-05-06 19:54 46.61708 18.05274 38904 ft 487 kts 110°
2026-05-06 19:55 46.59717 18.14673 38906 ft 487 kts 110°
2026-05-06 19:55 46.57717 18.24072 38909 ft 487 kts 110°
2026-05-06 19:56 46.55710 18.33465 38906 ft 487 kts 110°
2026-05-06 19:56 46.53693 18.42854 38908 ft 487 kts 110°
2026-05-06 19:57 46.51688 18.52155 38907 ft 485 kts 110°
2026-05-06 19:57 46.49671 18.61467 38911 ft 483 kts 110°
2026-05-06 19:58 46.47649 18.70752 38913 ft 483 kts 110°
2026-05-06 19:58 46.45622 18.80026 38909 ft 482 kts 110°
2026-05-06 19:59 46.43602 18.89223 38911 ft 481 kts 110°
2026-05-06 19:59 46.41570 18.98440 38914 ft 480 kts 110°
2026-05-06 20:00 46.39527 19.07658 38915 ft 481 kts 110°
2026-05-06 20:00 46.37474 19.16886 38914 ft 482 kts 110°
2026-05-06 20:01 46.35413 19.26110 38911 ft 480 kts 110°
2026-05-06 20:01 46.33369 19.35221 38914 ft 479 kts 111°
2026-05-06 20:02 46.31304 19.44384 38914 ft 479 kts 111°
2026-05-06 20:02 46.29230 19.53542 38914 ft 479 kts 111°
2026-05-06 20:03 46.27153 19.62679 38913 ft 478 kts 111°
2026-05-06 20:03 46.25087 19.71733 38915 ft 478 kts 111°
2026-05-06 20:04 46.23006 19.80809 38914 ft 478 kts 111°
2026-05-06 20:04 46.20910 19.89910 38911 ft 478 kts 111°
2026-05-06 20:05 46.18810 19.98995 38911 ft 478 kts 111°
2026-05-06 20:05 46.16712 20.08029 38906 ft 478 kts 111°
2026-05-06 20:06 46.14324 20.16949 38908 ft 476 kts 116°
2026-05-06 20:06 46.11706 20.25713 38908 ft 476 kts 116°
2026-05-06 20:07 46.09077 20.34457 38901 ft 476 kts 116°
2026-05-06 20:07 46.06491 20.43159 38905 ft 476 kts 116°
2026-05-06 20:08 46.03897 20.51926 38907 ft 476 kts 116°
2026-05-06 20:08 46.01304 20.60676 38913 ft 476 kts 116°
2026-05-06 20:09 45.98698 20.69429 38914 ft 476 kts 116°
2026-05-06 20:09 45.96082 20.78182 38914 ft 476 kts 116°
2026-05-06 20:10 45.93480 20.86859 38920 ft 476 kts 116°
2026-05-06 20:10 45.90852 20.95591 38925 ft 476 kts 116°
2026-05-06 20:11 45.88199 21.04313 38931 ft 477 kts 117°
2026-05-06 20:11 45.85448 21.12969 38936 ft 477 kts 118°
2026-05-06 20:12 45.82664 21.21592 38938 ft 477 kts 118°
2026-05-06 20:12 45.79895 21.30162 38938 ft 477 kts 118°
2026-05-06 20:13 45.77107 21.38789 38939 ft 478 kts 117°
2026-05-06 20:13 45.74306 21.47441 38935 ft 478 kts 117°
2026-05-06 20:14 45.71508 21.56061 38940 ft 477 kts 118°
2026-05-06 20:14 45.68721 21.64611 38940 ft 477 kts 117°
2026-05-06 20:15 45.65905 21.73221 38950 ft 479 kts 117°
2026-05-06 20:15 45.63073 21.81849 38956 ft 479 kts 117°
2026-05-06 20:16 45.60238 21.90463 38955 ft 479 kts 118°
2026-05-06 20:16 45.57412 21.99017 38958 ft 479 kts 117°
2026-05-06 20:17 45.54554 22.07640 38974 ft 481 kts 117°
2026-05-06 20:17 45.51687 22.16266 38976 ft 482 kts 117°
2026-05-06 20:18 45.48810 22.24892 38990 ft 482 kts 117°
2026-05-06 20:18 45.45927 22.33507 38997 ft 482 kts 117°
2026-05-06 20:19 45.43049 22.42079 39001 ft 484 kts 117°
2026-05-06 20:19 45.40138 22.50722 39017 ft 484 kts 117°
2026-05-06 20:20 45.37221 22.59353 39024 ft 484 kts 117°
2026-05-06 20:20 45.34299 22.67972 39016 ft 485 kts 117°
2026-05-06 20:21 45.31380 22.76553 39022 ft 486 kts 117°
2026-05-06 20:21 45.28435 22.85187 39028 ft 486 kts 117°
2026-05-06 20:22 45.25484 22.93806 39030 ft 486 kts 117°
2026-05-06 20:22 45.22519 23.02434 39027 ft 487 kts 117°
2026-05-06 20:23 45.19560 23.11024 39023 ft 488 kts 117°
2026-05-06 20:23 45.16578 23.19650 39031 ft 487 kts 117°
2026-05-06 20:24 45.13592 23.28262 39028 ft 487 kts 117°
2026-05-06 20:24 45.10604 23.36857 39022 ft 487 kts 117°
2026-05-06 20:25 45.07772 23.45493 39015 ft 487 kts 115°
2026-05-06 20:25 45.05011 23.54243 39021 ft 487 kts 115°
2026-05-06 20:26 45.02244 23.62982 39017 ft 487 kts 114°
2026-05-06 20:26 44.99452 23.71713 39016 ft 488 kts 115°
2026-05-06 20:27 44.96640 23.80444 39013 ft 488 kts 115°
2026-05-06 20:27 44.93838 23.89110 39014 ft 488 kts 115°
2026-05-06 20:28 44.91013 23.97820 39018 ft 489 kts 114°
2026-05-06 20:28 44.88176 24.06539 39009 ft 490 kts 115°
2026-05-06 20:29 44.85329 24.15264 39012 ft 490 kts 115°
2026-05-06 20:29 44.82498 24.23910 39001 ft 489 kts 115°
2026-05-06 20:30 44.78209 24.36950 39002 ft 489 kts 114°
2026-05-06 20:31 44.75344 24.45630 39007 ft 489 kts 114°
2026-05-06 20:31 44.72491 24.54240 39010 ft 489 kts 114°
2026-05-06 20:32 44.69614 24.62899 39011 ft 488 kts 114°
2026-05-06 20:32 44.66737 24.71525 39012 ft 487 kts 114°
2026-05-06 20:33 44.63859 24.80129 39023 ft 487 kts 114°
2026-05-06 20:33 44.60993 24.88671 39018 ft 487 kts 114°
2026-05-06 20:34 44.58102 24.97255 39024 ft 486 kts 114°
2026-05-06 20:34 44.55207 25.05829 39009 ft 487 kts 114°
2026-05-06 20:35 44.52302 25.14402 39012 ft 487 kts 114°
2026-05-06 20:35 44.49388 25.22974 39017 ft 487 kts 114°
2026-05-06 20:36 44.46494 25.31460 39020 ft 486 kts 114°
2026-05-06 20:36 44.43574 25.39995 39020 ft 486 kts 114°
2026-05-06 20:37 44.40650 25.48516 39017 ft 486 kts 114°
2026-05-06 20:37 44.37720 25.57026 39024 ft 486 kts 114°
2026-05-06 20:38 44.34802 25.65477 39023 ft 486 kts 114°
2026-05-06 20:38 44.31861 25.73965 39025 ft 486 kts 114°
2026-05-06 20:39 44.28909 25.82459 39021 ft 486 kts 115°
2026-05-06 20:39 44.25954 25.90936 39029 ft 486 kts 115°
2026-05-06 20:40 44.23008 25.99360 39023 ft 486 kts 115°
2026-05-06 20:40 44.20039 26.07824 39028 ft 486 kts 115°
2026-05-06 20:41 44.17059 26.16292 39041 ft 486 kts 115°
2026-05-06 20:41 44.14073 26.24751 39032 ft 487 kts 115°
2026-05-06 20:42 44.11099 26.33152 39044 ft 487 kts 115°
2026-05-06 20:42 44.08100 26.41594 39040 ft 487 kts 115°
2026-05-06 20:43 44.04958 26.49932 39041 ft 488 kts 122°
2026-05-06 20:43 44.01153 26.57744 39050 ft 488 kts 124°
2026-05-06 20:44 43.97234 26.65378 39048 ft 489 kts 125°
2026-05-06 20:44 43.93259 26.73034 39060 ft 489 kts 124°
2026-05-06 20:45 43.89283 26.80701 39054 ft 490 kts 124°
2026-05-06 20:45 43.85308 26.88370 39056 ft 490 kts 124°
2026-05-06 20:46 43.81354 26.95986 39065 ft 490 kts 124°
2026-05-06 20:46 43.77370 27.03640 39064 ft 490 kts 124°
2026-05-06 20:47 43.73380 27.11286 39071 ft 490 kts 124°
2026-05-06 20:47 43.69383 27.18923 39078 ft 490 kts 124°
2026-05-06 20:48 43.65384 27.26545 39094 ft 490 kts 124°
2026-05-06 20:48 43.61406 27.34107 39087 ft 490 kts 124°
2026-05-06 20:49 43.57392 27.41718 39088 ft 490 kts 124°
2026-05-06 20:49 43.53378 27.49309 39086 ft 490 kts 124°
2026-05-06 20:50 43.49356 27.56895 39099 ft 490 kts 124°
2026-05-06 20:50 43.45357 27.64421 39101 ft 490 kts 124°
2026-05-06 20:51 43.41328 27.71982 39102 ft 490 kts 124°
2026-05-06 20:51 43.37288 27.79544 39111 ft 490 kts 124°
2026-05-06 20:52 43.33249 27.87085 39103 ft 490 kts 124°
2026-05-06 20:52 43.29226 27.94577 39102 ft 490 kts 124°
2026-05-06 20:53 43.25176 28.02099 39103 ft 490 kts 125°
2026-05-06 20:53 43.21118 28.09617 39106 ft 490 kts 124°
2026-05-06 20:54 43.17058 28.17122 39119 ft 490 kts 124°
2026-05-06 20:54 43.13015 28.24576 39119 ft 490 kts 125°
2026-05-06 20:55 43.08944 28.32062 39128 ft 490 kts 124°
2026-05-06 20:55 43.04869 28.39535 39117 ft 489 kts 125°
2026-05-06 20:56 43.00795 28.46988 39122 ft 489 kts 125°
2026-05-06 20:56 42.96745 28.54379 39123 ft 489 kts 125°
2026-05-06 20:57 42.92664 28.61808 39125 ft 489 kts 125°
2026-05-06 20:57 42.88575 28.69234 39121 ft 489 kts 125°
2026-05-06 20:58 42.84484 28.76645 39124 ft 489 kts 125°
2026-05-06 20:58 42.80381 28.84057 39127 ft 490 kts 125°
2026-05-06 20:59 42.76341 28.91341 39124 ft 490 kts 125°
2026-05-06 20:59 42.72228 28.98735 39123 ft 490 kts 125°
2026-05-06 21:00 42.68109 29.06123 39123 ft 491 kts 125°
2026-05-06 21:00 42.63979 29.13508 39127 ft 491 kts 125°
2026-05-06 21:01 42.59872 29.20839 39126 ft 491 kts 125°
2026-05-06 21:01 42.55733 29.28209 39124 ft 491 kts 125°
2026-05-06 21:02 42.51593 29.35561 39124 ft 491 kts 125°
2026-05-06 21:02 42.47449 29.42903 39123 ft 491 kts 125°
2026-05-06 21:03 42.43296 29.50241 39124 ft 491 kts 125°
2026-05-06 21:03 42.39170 29.57515 39130 ft 490 kts 125°
2026-05-06 21:04 42.35758 29.65408 39123 ft 484 kts 109°
2026-05-06 21:04 42.33393 29.73920 39123 ft 484 kts 106°
2026-05-06 21:05 42.31245 29.82469 39122 ft 484 kts 105°
2026-05-06 21:05 42.29098 29.91074 39119 ft 484 kts 106°
2026-05-06 21:06 42.26917 29.99675 39121 ft 484 kts 106°
2026-05-06 21:06 42.24714 30.08266 39119 ft 484 kts 106°
2026-05-06 21:07 42.22499 30.16854 39112 ft 484 kts 106°
2026-05-06 21:07 42.20294 30.25379 39111 ft 485 kts 106°
2026-05-06 21:08 42.18066 30.33962 39115 ft 485 kts 106°
2026-05-06 21:08 42.15833 30.42538 39128 ft 485 kts 106°
2026-05-06 21:09 42.13592 30.51112 39120 ft 486 kts 107°
2026-05-06 21:09 42.11356 30.59641 39113 ft 487 kts 107°
2026-05-06 21:10 42.09094 30.68235 39114 ft 487 kts 107°
2026-05-06 21:10 42.06827 30.76819 39128 ft 487 kts 107°
2026-05-06 21:11 42.04551 30.85404 39109 ft 487 kts 107°
2026-05-06 21:11 42.02282 30.93934 39111 ft 488 kts 107°
2026-05-06 21:12 41.99992 31.02517 39113 ft 488 kts 107°
2026-05-06 21:12 41.97699 31.11090 39116 ft 487 kts 107°
2026-05-06 21:13 41.95403 31.19655 39108 ft 487 kts 107°
2026-05-06 21:13 41.93101 31.28216 39108 ft 488 kts 107°
2026-05-06 21:14 41.90804 31.36722 39103 ft 488 kts 107°
2026-05-06 21:14 41.88487 31.45276 39104 ft 488 kts 107°
2026-05-06 21:15 41.86163 31.53825 39108 ft 488 kts 108°
2026-05-06 21:15 41.83834 31.62362 39100 ft 488 kts 108°
2026-05-06 21:16 41.81505 31.70856 39107 ft 488 kts 108°
2026-05-06 21:16 41.79169 31.79326 39103 ft 488 kts 108°
2026-05-06 21:17 41.76816 31.87838 39105 ft 488 kts 108°
2026-05-06 21:17 41.74453 31.96361 39106 ft 488 kts 108°
2026-05-06 21:18 41.72102 32.04812 39102 ft 488 kts 108°
2026-05-06 21:18 41.69730 32.13313 39106 ft 488 kts 108°
2026-05-06 21:19 41.67352 32.21814 39105 ft 488 kts 108°
2026-05-06 21:19 41.64976 32.30315 39105 ft 488 kts 108°
2026-05-06 21:20 41.62594 32.38800 39118 ft 488 kts 108°
2026-05-06 21:20 41.60213 32.47220 39116 ft 488 kts 108°
2026-05-06 21:21 41.57809 32.55691 39124 ft 488 kts 108°
2026-05-06 21:21 41.55400 32.64164 39136 ft 488 kts 109°
2026-05-06 21:22 41.52985 32.72628 39125 ft 488 kts 109°
2026-05-06 21:22 41.50580 32.81031 39139 ft 488 kts 109°
2026-05-06 21:23 41.48154 32.89481 39138 ft 488 kts 109°
2026-05-06 21:23 41.45685 32.97914 39150 ft 489 kts 113°
2026-05-06 21:24 41.42579 33.05974 39147 ft 490 kts 116°
2026-05-06 21:24 41.39297 33.13926 39166 ft 490 kts 117°
2026-05-06 21:25 41.35997 33.21796 39152 ft 490 kts 118°
2026-05-06 21:25 41.32730 33.29733 39148 ft 489 kts 117°
2026-05-06 21:26 41.29518 33.37719 39150 ft 489 kts 116°
2026-05-06 21:26 41.26350 33.45716 39149 ft 489 kts 116°
2026-05-06 21:27 41.23221 33.53665 39146 ft 488 kts 116°
2026-05-06 21:27 41.20064 33.61648 39141 ft 489 kts 116°
2026-05-06 21:28 41.16873 33.69681 39138 ft 494 kts 117°
2026-05-06 21:28 41.13660 33.77739 39136 ft 494 kts 117°
2026-05-06 21:29 41.10464 33.85729 39136 ft 494 kts 117°
2026-05-06 21:29 41.07241 33.93767 39132 ft 494 kts 117°
2026-05-06 21:30 41.04011 34.01801 39124 ft 494 kts 117°
2026-05-06 21:30 41.00777 34.09823 39124 ft 494 kts 117°
2026-05-06 21:31 40.97538 34.17836 39124 ft 494 kts 118°
2026-05-06 21:31 40.94316 34.25786 39109 ft 493 kts 118°
2026-05-06 21:32 40.91068 34.33778 39105 ft 493 kts 118°
2026-05-06 21:32 40.86185 34.45754 39105 ft 493 kts 118°
2026-05-06 21:33 40.82944 34.53676 39100 ft 494 kts 118°
2026-05-06 21:33 40.79667 34.61664 39102 ft 495 kts 118°
2026-05-06 21:34 40.76388 34.69638 39098 ft 495 kts 118°
2026-05-06 21:34 40.73073 34.77595 39100 ft 495 kts 119°
2026-05-06 21:35 40.69701 34.85442 39102 ft 495 kts 119°
2026-05-06 21:35 40.66285 34.93327 39105 ft 495 kts 120°
2026-05-06 21:36 40.62867 35.01217 39106 ft 496 kts 120°
2026-05-06 21:36 40.59455 35.09092 39105 ft 496 kts 120°
2026-05-06 21:37 40.56033 35.16972 39110 ft 496 kts 120°
2026-05-06 21:37 40.52632 35.24785 39113 ft 496 kts 120°
2026-05-06 21:38 40.49204 35.32639 39114 ft 495 kts 120°
2026-05-06 21:38 40.45769 35.40490 39113 ft 496 kts 120°
2026-05-06 21:39 40.42329 35.48330 39111 ft 496 kts 120°
2026-05-06 21:39 40.38907 35.56110 39120 ft 496 kts 120°
2026-05-06 21:40 40.35458 35.63929 39127 ft 495 kts 120°
2026-05-06 21:40 40.32003 35.71746 39126 ft 495 kts 120°
2026-05-06 21:41 40.28548 35.79540 39138 ft 495 kts 121°
2026-05-06 21:41 40.25085 35.87332 39148 ft 495 kts 121°
2026-05-06 21:42 40.21644 35.95058 39154 ft 495 kts 121°
2026-05-06 21:42 40.18173 36.02829 39167 ft 494 kts 121°
2026-05-06 21:43 40.14699 36.10589 39167 ft 495 kts 121°
2026-05-06 21:43 40.11219 36.18341 39176 ft 495 kts 121°
2026-05-06 21:44 40.07730 36.26094 39176 ft 495 kts 121°
2026-05-06 21:44 40.04257 36.33792 39179 ft 495 kts 121°
2026-05-06 21:45 40.00757 36.41531 39180 ft 495 kts 122°
2026-05-06 21:45 39.97245 36.49278 39179 ft 496 kts 122°
2026-05-06 21:46 39.93753 36.56962 39181 ft 496 kts 122°
2026-05-06 21:46 39.90232 36.64690 39181 ft 496 kts 122°
2026-05-06 21:47 39.86697 36.72428 39183 ft 498 kts 122°
2026-05-06 21:47 39.83154 36.80166 39184 ft 498 kts 122°
2026-05-06 21:48 39.79603 36.87901 39179 ft 498 kts 122°
2026-05-06 21:48 39.76105 36.95628 39182 ft 500 kts 122°
2026-05-06 21:49 39.72610 37.03452 39183 ft 501 kts 122°
2026-05-06 21:49 39.69113 37.11267 39179 ft 500 kts 122°
2026-05-06 21:50 39.65604 37.19074 39175 ft 501 kts 122°
2026-05-06 21:50 39.62112 37.26813 39170 ft 501 kts 122°
2026-05-06 21:51 39.58587 37.34603 39161 ft 501 kts 122°
2026-05-06 21:51 39.55053 37.42389 39162 ft 501 kts 122°
2026-05-06 21:52 39.51512 37.50172 39159 ft 502 kts 122°
2026-05-06 21:52 39.47988 37.57896 39164 ft 502 kts 122°
2026-05-06 21:53 39.44440 37.65654 39155 ft 501 kts 122°
2026-05-06 21:53 39.40881 37.73400 39152 ft 501 kts 123°
2026-05-06 21:54 39.37316 37.81135 39151 ft 501 kts 123°
2026-05-06 21:54 39.33743 37.88868 39155 ft 502 kts 123°
2026-05-06 21:55 39.30186 37.96550 39147 ft 502 kts 123°
2026-05-06 21:55 39.26601 38.04274 39143 ft 501 kts 123°
2026-05-06 21:56 39.23017 38.11980 39148 ft 500 kts 123°
2026-05-06 21:56 39.19435 38.19661 39150 ft 500 kts 123°
2026-05-06 21:57 39.15872 38.27280 39144 ft 500 kts 124°
2026-05-06 21:57 39.12286 38.34933 39146 ft 498 kts 124°
2026-05-06 21:58 39.08698 38.42568 39147 ft 498 kts 124°
2026-05-06 21:58 39.05108 38.50191 39140 ft 498 kts 124°
2026-05-06 21:59 39.01506 38.57822 39138 ft 499 kts 124°
2026-05-06 21:59 38.97921 38.65399 39140 ft 499 kts 124°
2026-05-06 22:00 38.94311 38.73010 39143 ft 500 kts 125°
2026-05-06 22:00 38.90684 38.80641 39144 ft 501 kts 125°
2026-05-06 22:01 38.87049 38.88268 39141 ft 501 kts 125°
2026-05-06 22:01 38.83437 38.95839 39138 ft 502 kts 125°
2026-05-06 22:02 38.79804 39.03499 39141 ft 503 kts 125°
2026-05-06 22:02 38.76169 39.11171 39141 ft 503 kts 125°
2026-05-06 22:03 38.72521 39.18833 39131 ft 503 kts 127°
2026-05-06 22:03 38.68122 39.25583 39131 ft 495 kts 139°
2026-05-06 22:04 38.63172 39.31696 39104 ft 495 kts 141°
2026-05-06 22:04 38.58118 39.37675 39128 ft 495 kts 142°
2026-05-06 22:05 38.53064 39.43640 39126 ft 495 kts 142°
2026-05-06 22:05 38.48871 39.48609 39126 ft 495 kts 142°
2026-05-06 22:06 38.43024 39.55548 39121 ft 493 kts 142°
2026-05-06 22:06 38.38813 39.60540 39127 ft 493 kts 142°
2026-05-06 22:07 38.33818 39.66449 39107 ft 493 kts 142°
2026-05-06 22:07 38.28796 39.72377 39123 ft 492 kts 142°
2026-05-06 22:08 38.23782 39.78283 39120 ft 491 kts 142°
2026-05-06 22:08 38.18762 39.84184 39113 ft 491 kts 143°
2026-05-06 22:09 38.13742 39.90074 39116 ft 491 kts 143°
2026-05-06 22:09 38.08751 39.95918 39112 ft 491 kts 143°
2026-05-06 22:10 38.03720 40.01798 39116 ft 492 kts 143°
2026-05-06 22:10 37.98675 40.07682 39113 ft 493 kts 143°
2026-05-06 22:11 37.93627 40.13559 39088 ft 493 kts 143°
2026-05-06 22:11 37.88605 40.19394 39102 ft 494 kts 143°
2026-05-06 22:12 37.83660 40.25460 39103 ft 497 kts 140°
2026-05-06 22:12 37.78845 40.31739 39103 ft 497 kts 140°
2026-05-06 22:13 37.74042 40.38018 39105 ft 497 kts 140°
2026-05-06 22:13 37.69249 40.44218 39104 ft 496 kts 140°
2026-05-06 22:14 37.64411 40.50438 39104 ft 497 kts 140°
2026-05-06 22:14 37.59566 40.56645 39099 ft 497 kts 140°
2026-05-06 22:15 37.54712 40.62854 39096 ft 497 kts 141°
2026-05-06 22:15 37.49881 40.69021 39101 ft 498 kts 141°
2026-05-06 22:16 37.45012 40.75227 39102 ft 498 kts 141°
2026-05-06 22:16 37.40137 40.81430 39094 ft 498 kts 141°
2026-05-06 22:17 37.35262 40.87620 39099 ft 498 kts 141°
2026-05-06 22:17 37.30382 40.93803 39093 ft 498 kts 141°
2026-05-06 22:18 37.25534 40.99936 39091 ft 498 kts 141°
2026-05-06 22:18 37.20647 41.06113 39108 ft 498 kts 141°
2026-05-06 22:19 37.15761 41.12276 39097 ft 498 kts 141°
2026-05-06 22:19 37.10875 41.18428 39092 ft 498 kts 141°
2026-05-06 22:20 37.05823 41.24172 39093 ft 490 kts 149°
2026-05-06 22:20 37.00367 41.29267 39084 ft 488 kts 151°
2026-05-06 22:21 36.94852 41.34210 39083 ft 488 kts 152°
2026-05-06 22:21 36.89333 41.39126 39075 ft 487 kts 152°
2026-05-06 22:22 36.83814 41.44055 39071 ft 487 kts 152°
2026-05-06 22:22 36.78343 41.48945 39077 ft 487 kts 152°
2026-05-06 22:23 36.72832 41.53867 39075 ft 487 kts 152°
2026-05-06 22:23 36.67320 41.58780 39071 ft 487 kts 152°
2026-05-06 22:24 36.61809 41.63683 39067 ft 486 kts 152°
2026-05-06 22:24 36.56348 41.68552 39066 ft 487 kts 151°
2026-05-06 22:25 36.50967 41.73704 39067 ft 489 kts 149°
2026-05-06 22:25 36.45642 41.78981 39052 ft 490 kts 149°
2026-05-06 22:26 36.40312 41.84243 39059 ft 488 kts 149°
2026-05-06 22:26 36.34977 41.89462 39053 ft 488 kts 150°
2026-05-06 22:27 36.29676 41.94622 39061 ft 488 kts 150°
2026-05-06 22:27 36.24334 41.99810 39037 ft 487 kts 150°
2026-05-06 22:28 36.19007 42.04979 39052 ft 485 kts 150°
2026-05-06 22:28 36.13696 42.10122 39052 ft 485 kts 150°
2026-05-06 22:29 36.08380 42.15259 39051 ft 485 kts 150°
2026-05-06 22:29 36.03099 42.20355 39034 ft 485 kts 150°
2026-05-06 22:30 35.97791 42.25470 39051 ft 483 kts 150°
2026-05-06 22:30 35.92491 42.30567 39041 ft 483 kts 150°
2026-05-06 22:31 35.87200 42.35645 39048 ft 482 kts 150°
2026-05-06 22:31 35.81948 42.40677 39028 ft 481 kts 150°
2026-05-06 22:32 35.76657 42.45739 39040 ft 481 kts 151°
2026-05-06 22:32 35.71361 42.50795 39041 ft 482 kts 151°
2026-05-06 22:33 35.66070 42.55838 39042 ft 481 kts 151°
2026-05-06 22:33 35.60774 42.60879 39032 ft 482 kts 151°
2026-05-06 22:34 35.55495 42.65892 39036 ft 483 kts 151°
2026-05-06 22:34 35.50173 42.70940 39037 ft 484 kts 151°
2026-05-06 22:35 35.44848 42.75982 39048 ft 483 kts 151°
2026-05-06 22:35 35.39554 42.80987 39038 ft 483 kts 151°
2026-05-06 22:36 35.34263 42.85980 39036 ft 483 kts 151°
2026-05-06 22:36 35.28933 42.91000 39038 ft 483 kts 151°
2026-05-06 22:37 35.23609 42.96006 39040 ft 482 kts 151°
2026-05-06 22:37 35.18321 43.00968 39041 ft 482 kts 151°
2026-05-06 22:38 35.13000 43.05952 39037 ft 482 kts 151°
2026-05-06 22:38 35.07684 43.10925 39040 ft 481 kts 151°
2026-05-06 22:39 35.02370 43.15887 39039 ft 481 kts 151°
2026-05-06 22:39 34.97048 43.20848 39020 ft 481 kts 151°
2026-05-06 22:40 34.91758 43.25772 39030 ft 482 kts 152°
2026-05-06 22:40 34.86433 43.30719 39034 ft 482 kts 152°
2026-05-06 22:41 34.78439 43.38130 39031 ft 482 kts 152°
2026-05-06 22:42 34.73103 43.43066 39025 ft 482 kts 152°
2026-05-06 22:42 34.67802 43.47963 39042 ft 482 kts 152°
2026-05-06 22:43 34.62451 43.52896 39033 ft 483 kts 152°
2026-05-06 22:43 34.57093 43.57827 39032 ft 484 kts 152°
2026-05-06 22:44 34.51733 43.62755 39030 ft 483 kts 152°
2026-05-06 22:44 34.46373 43.67678 39028 ft 483 kts 152°
2026-05-06 22:45 34.41053 43.72559 39027 ft 483 kts 152°
2026-05-06 22:45 34.35688 43.77472 39028 ft 483 kts 152°
2026-05-06 22:46 34.30333 43.82370 39028 ft 482 kts 152°
2026-05-06 22:46 34.24985 43.87254 39028 ft 481 kts 152°
2026-05-06 22:47 34.19707 43.92115 39026 ft 482 kts 150°
2026-05-06 22:47 34.14583 43.97384 39026 ft 486 kts 148°
2026-05-06 22:48 34.09534 44.02815 39026 ft 486 kts 148°
2026-05-06 22:48 34.04478 44.08220 39031 ft 485 kts 148°
2026-05-06 22:49 33.99410 44.13576 39023 ft 484 kts 148°
2026-05-06 22:49 33.94369 44.18871 39031 ft 484 kts 148°
2026-05-06 22:50 33.89301 44.24183 39018 ft 483 kts 148°
2026-05-06 22:50 33.84236 44.29486 39029 ft 482 kts 148°
2026-05-06 22:51 33.79174 44.34778 39046 ft 482 kts 149°
2026-05-06 22:51 33.74116 44.40056 39040 ft 482 kts 149°
2026-05-06 22:52 33.69091 44.45292 39043 ft 481 kts 149°
2026-05-06 22:52 33.64040 44.50549 39034 ft 480 kts 149°
2026-05-06 22:53 33.59000 44.55785 39048 ft 479 kts 149°
2026-05-06 22:53 33.53956 44.61015 39049 ft 479 kts 149°
2026-05-06 22:54 33.48961 44.66232 39053 ft 479 kts 149°
2026-05-06 22:54 33.43954 44.71492 39058 ft 479 kts 149°
2026-05-06 22:55 33.38942 44.76748 39058 ft 479 kts 149°
2026-05-06 22:55 33.33931 44.82002 39061 ft 479 kts 148°
2026-05-06 22:56 33.28962 44.87240 39061 ft 479 kts 148°
2026-05-06 22:56 33.23964 44.92511 39060 ft 479 kts 148°
2026-05-06 22:57 33.18962 44.97773 39066 ft 479 kts 148°
2026-05-06 22:57 33.13955 45.03029 39062 ft 479 kts 149°
2026-05-06 22:58 33.08988 45.08235 39074 ft 478 kts 149°
2026-05-06 22:58 33.03992 45.13462 39071 ft 478 kts 149°
2026-05-06 22:59 32.98990 45.18686 39076 ft 478 kts 149°
2026-05-06 22:59 32.93988 45.23903 39064 ft 478 kts 149°
2026-05-06 23:00 32.88987 45.29112 39074 ft 478 kts 149°
2026-05-06 23:00 32.84016 45.34281 39082 ft 478 kts 149°
2026-05-06 23:01 32.79063 45.39582 39083 ft 480 kts 147°
2026-05-06 23:01 32.74178 45.45010 39072 ft 481 kts 147°
2026-05-06 23:02 32.69306 45.50436 39042 ft 480 kts 147°
2026-05-06 23:02 32.64408 45.55854 39066 ft 481 kts 147°
2026-05-06 23:03 32.59538 45.61232 39064 ft 481 kts 147°
2026-05-06 23:03 32.54648 45.66642 39050 ft 481 kts 147°
2026-05-06 23:04 32.49743 45.72058 39059 ft 482 kts 147°
2026-05-06 23:04 32.44835 45.77470 39061 ft 482 kts 147°
2026-05-06 23:05 32.39954 45.82843 39050 ft 482 kts 148°
2026-05-06 23:05 32.35039 45.88238 39050 ft 482 kts 148°
2026-05-06 23:06 32.30114 45.93621 39030 ft 482 kts 148°
2026-05-06 23:06 32.25190 45.98994 39059 ft 481 kts 148°
2026-05-06 23:07 32.20265 46.04360 39045 ft 482 kts 148°
2026-05-06 23:07 32.15371 46.09684 39040 ft 482 kts 148°
2026-05-06 23:08 32.10435 46.15047 39048 ft 482 kts 148°
2026-05-06 23:08 32.05504 46.20397 39036 ft 482 kts 148°
2026-05-06 23:09 32.00564 46.25748 39030 ft 482 kts 148°
2026-05-06 23:09 31.95661 46.31052 39026 ft 482 kts 148°
2026-05-06 23:10 31.90722 46.36385 39019 ft 482 kts 148°
2026-05-06 23:10 31.85783 46.41710 39010 ft 481 kts 149°
2026-05-06 23:11 31.80849 46.47022 38996 ft 481 kts 149°